EHI
0 0 0 0 0 0 0 0 0 0 0 0 0 0 0 0 1 4 5 4 3 4 4 2 1 0 1 3 5 6 6 6 7 8 8 7 6 5 7 7 5 2 2 2
0 0 0 0 0 0 0 0 0 0 0 0 0 0 1 1 2 5 7 6 4 4 5 4 3 2 2 3 4 6 7 9 11 12 11 9 7 6 7 7 4 2 1 1
0 0 0 0 0 0 0 0 0 0 0 0 0 0 1 2 3 6 7 7 7 6 5 6 7 5 3 4 5 6 8 13 15 16 17 14 11 9 8 6 3 1 1 1
0 0 0 0 0 0 0 0 0 0 0 0 0 0 1 2 3 5 7 8 8 8 7 8 9 9 7 7 9 8 10 14 17 18 20 19 16 12 10 7 4 2 2 2
0 0 0 0 0 0 0 0 0 0 0 0 0 0 0 1 1 3 6 8 10 10 9 9 10 10 10 10 11 11 12 14 16 18 20 20 18 15 11 9 6 3 1 1
0 0 0 0 0 0 0 0 0 0 0 0 0 0 0 0 0 2 5 9 11 12 11 10 10 9 9 9 11 13 15 15 16 17 19 19 17 14 12 9 6 3 1 0
0 0 0 0 0 0 0 0 0 0 0 0 0 0 0 0 0 2 6 10 12 14 12 10 8 7 7 8 10 14 16 15 14 15 16 16 14 11 10 9 7 3 1 1
0 0 0 0 0 0 0 0 0 0 0 0 0 0 0 0 0 3 7 12 15 15 13 9 7 6 6 8 9 12 14 14 13 13 15 14 11 9 9 9 7 3 2 2
0 0 0 0 0 0 0 0 0 0 0 0 0 0 0 0 1 5 9 14 16 15 12 9 6 5 5 7 9 10 12 13 13 14 16 15 11 9 10 10 7 4 3 3
0 0 0 0 0 0 0 0 0 0 0 0 0 0 0 0 1 5 9 13 14 13 12 9 6 5 5 7 9 11 12 13 13 15 16 16 13 11 10 9 7 5 4 4
0 0 0 0 0 0 0 0 0 0 0 0 0 0 0 0 2 5 8 10 12 14 13 10 7 6 7 7 9 10 11 12 13 13 14 15 13 10 9 8 8 7 7 6
0 0 0 0 0 0 0 0 0 0 0 0 0 0 0 1 4 6 7 8 10 12 12 10 8 6 7 7 8 10 11 12 12 11 11 11 11 9 8 7 8 9 9 9
0 0 0 0 0 0 0 0 0 0 0 0 0 0 0 2 6 7 7 7 8 8 9 8 6 4 5 6 8 10 11 12 12 11 9 8 9 9 7 6 7 9 10 9
0 0 0 0 0 0 0 0 0 0 0 0 0 0 0 3 6 7 8 8 7 7 7 6 5 4 4 5 8 11 12 13 12 11 10 9 8 8 6 6 6 8 9 9
0 0 0 0 0 0 0 0 0 0 0 0 0 0 1 3 6 7 7 8 7 7 7 6 5 5 6 6 8 11 12 12 12 12 10 9 8 8 7 6 6 7 8 8
0 0 0 0 0 0 0 0 0 0 0 0 0 0 2 4 5 6 6 7 7 6 6 6 5 6 7 7 9 10 11 10 10 10 10 9 9 9 9 8 7 5 4 4
0 0 0 0 0 0 0 0 0 0 0 0 1 1 2 3 3 4 5 6 6 5 5 5 4 4 4 6 9 10 10 9 9 9 9 8 9 11 12 11 9 6 3 2
0 0 0 0 0 0 0 0 0 0 0 1 1 1 1 2 3 3 4 5 6 5 5 4 2 2 3 6 8 9 9 8 9 9 7 7 8 11 13 14 12 9 5 4
0 0 0 0 0 0 0 0 0 0 0 1 1 1 1 3 4 3 3 6 7 7 5 3 2 2 3 5 7 8 7 7 8 7 6 7 10 12 13 15 15 12 9 8
0 0 0 0 0 0 0 0 0 0 0 0 0 1 2 3 3 2 2 5 7 8 7 5 4 4 4 3 4 5 5 5 6 7 7 10 12 13 13 14 15 14 12 12
0 0 0 0 0 0 0 0 0 0 0 0 1 2 3 3 3 2 2 3 5 6 7 6 5 4 3 2 2 3 4 5 6 7 9 12 13 13 12 12 12 13 13 13
0 0 0 0 0 0 0 0 0 0 0 0 1 3 4 5 3 3 4 4 4 4 5 5 4 3 2 1 2 3 4 5 5 5 7 9 11 11 10 10 11 12 13 13
0 0 0 0 0 0 0 0 0 0 0 0 1 2 4 5 3 3 4 4 4 4 5 4 3 2 2 1 2 2 3 4 4 4 4 7 9 10 10 11 12 13 13 13
0 0 0 0 0 0 0 0 0 0 0 0 0 1 3 3 2 2 2 2 2 3 3 3 3 3 3 3 3 2 2 2 3 4 4 6 9 9 9 11 13 14 13 12
0 0 0 0 0 0 0 0 0 0 0 0 0 1 1 1 1 2 2 1 1 1 1 2 3 3 4 4 4 3 2 2 3 4 4 6 8 9 9 9 10 10 10 8
0 0 0 0 0 0 0 0 0 0 0 0 0 0 1 1 2 3 2 1 0 0 0 1 3 3 4 4 4 4 3 3 3 3 4 5 7 8 9 8 7 6 4 4
Wind_Speed
2 3 3 6 7 5 3 2 3 3 2 3 4 4 4 6 7 8 7 8 8 9 7 6 6 6 6 5 5 5 5 4 3 2 2 1 1 0 0 1 1 1 1 2
3 4 8 4 4 3 3 2 3 3 1 2 1 3 3 6 9 10 10 10 10 8 5 6 6 6 6 6 6 6 6 5 4 3 3 2 2 1 1 0 0 0 1 1
6 6 3 3 3 3 3 5 4 2 2 3 2 4 2 3 4 5 7 7 8 9 8 7 7 7 6 6 7 6 6 5 4 4 3 2 2 2 1 1 0 1 0 1
4 5 3 3 4 5 4 5 5 3 3 1 1 3 5 2 2 5 6 6 7 7 7 7 8 7 8 8 6 5 5 5 5 5 4 4 3 3 2 1 1 0 0 1
5 3 3 4 5 6 5 1 3 2 3 1 1 1 7 1 4 6 6 6 6 7 7 8 8 8 7 7 6 6 5 4 4 5 6 5 3 2 1 1 1 0 0 0
5 3 4 5 2 5 4 6 6 5 5 1 2 3 6 4 6 6 6 6 6 6 6 6 7 6 5 5 5 5 5 5 5 5 5 6 5 4 3 2 1 1 0 0
4 4 2 3 2 1 4 6 4 4 3 5 2 2 9 6 5 6 6 6 5 5 5 5 6 6 6 7 6 6 6 6 5 5 5 5 5 5 5 4 3 2 1 1
2 5 4 3 6 6 4 8 8 5 5 4 1 5 8 4 3 2 3 4 4 4 5 6 6 6 6 6 6 6 7 6 6 6 6 5 5 4 3 4 3 3 3 3
6 6 4 3 3 8 6 4 6 7 3 0 4 6 8 2 1 1 3 3 4 4 5 5 5 5 6 6 6 6 7 6 6 6 6 5 5 5 5 4 3 3 2 2
9 4 4 3 3 2 5 8 6 6 6 3 4 4 5 4 3 2 3 4 4 4 3 4 4 4 4 5 5 4 5 6 5 6 6 5 5 5 4 4 4 3 3 2
6 5 4 2 2 4 4 4 5 5 5 7 3 7 6 6 6 6 5 5 4 4 4 3 3 3 3 3 4 4 4 4 4 4 4 4 4 4 4 3 3 3 3 3
4 6 3 5 4 3 4 7 8 6 4 5 4 8 4 3 4 4 4 3 3 3 3 3 3 3 3 2 2 3 4 4 4 4 4 4 3 3 3 3 3 4 4 3
6 7 2 5 5 1 1 3 5 5 6 5 5 7 2 1 1 2 3 3 3 2 2 2 3 3 2 2 2 2 3 3 3 3 4 4 3 4 4 4 4 3 4 3
6 5 7 9 8 4 2 2 5 6 5 5 7 6 4 2 2 1 2 3 2 2 3 3 2 2 2 2 2 2 2 2 3 3 3 4 4 4 4 4 3 3 3 4
5 3 3 3 2 3 2 2 4 5 7 8 7 6 7 5 4 3 3 2 2 2 2 3 3 3 2 2 2 2 2 1 2 3 3 3 3 3 3 3 3 3 3 3
4 4 2 1 0 2 1 1 2 3 3 3 3 5 4 2 2 2 2 3 3 3 3 3 3 3 3 3 2 2 2 1 2 2 3 3 3 3 3 3 3 3 3 3
2 5 4 2 2 2 2 3 3 2 1 4 5 5 2 2 3 3 3 3 4 4 3 3 4 4 4 4 3 3 3 2 2 2 1 2 3 3 3 3 3 3 3 3
5 4 4 3 2 4 6 1 3 3 1 2 3 3 4 4 3 1 2 4 4 4 4 4 4 4 3 2 2 2 2 3 2 2 2 2 2 3 2 3 3 3 2 3
4 7 5 4 3 3 4 1 3 3 1 1 2 1 2 3 4 3 1 2 3 4 4 4 3 3 3 3 2 3 2 2 2 2 2 3 3 3 3 3 3 3 2 2
4 4 6 4 4 6 6 2 1 4 2 2 3 3 2 4 2 3 2 0 1 1 1 1 1 2 2 1 2 3 2 2 3 3 3 2 3 3 3 3 3 2 2 3
3 3 3 4 3 6 4 3 2 4 5 2 3 3 3 3 3 2 1 2 1 1 1 2 2 2 1 1 3 2 2 2 2 1 1 2 2 3 3 2 2 2 2 2
4 3 3 4 3 6 2 2 4 5 1 1 2 3 3 2 2 2 2 2 2 3 3 3 3 3 2 2 3 2 0 1 1 1 2 2 2 2 2 2 2 2 2 2
3 4 5 6 6 3 1 2 2 2 2 2 3 3 3 3 3 3 2 2 3 3 3 3 3 3 3 3 3 2 1 1 0 1 1 1 1 1 2 2 2 2 2 2
1 2 2 1 3 2 2 1 1 1 2 2 3 3 3 3 4 4 3 3 3 3 2 3 4 3 3 2 2 0 1 1 1 1 0 0 2 1 1 1 2 2 2 2
2 2 2 1 3 2 2 2 1 1 2 3 3 2 4 5 4 4 3 2 2 2 1 2 2 2 1 2 2 2 2 2 2 1 1 1 2 2 1 1 1 2 3 4
3 5 5 5 5 4 4 2 1 1 1 2 3 2 2 4 5 4 3 2 2 2 1 2 2 1 1 2 2 2 2 1 2 1 1 0 1 1 1 1 1 1 2 3
Wind_Direction
117 93 219 213 197 200 189 195 249 256 211 167 216 240 220 189 185 194 200 200 206 216 216 200 191 180 174 178 183 186 183 182 159 145 151 154 192 215 194 197 196 188 166 148
64 243 234 209 193 188 181 212 253 293 295 161 221 268 242 198 199 199 200 204 206 208 196 196 192 184 181 185 189 188 186 178 174 169 160 152 150 166 186 216 154 188 167 158
189 235 204 180 195 205 222 204 215 211 28 42 48 319 268 236 210 215 214 210 205 202 200 198 192 193 186 193 195 196 191 181 177 161 130 110 83 55 47 16 318 286 187 147
228 250 195 191 210 177 239 225 193 169 108 313 77 282 285 247 235 224 222 208 206 209 201 196 190 189 195 200 191 189 183 178 172 161 159 158 162 179 202 204 209 284 137 135
237 220 190 206 214 173 211 128 122 120 126 50 11 189 283 283 241 238 222 208 204 205 197 194 192 193 196 193 184 180 173 178 174 172 175 172 171 182 177 161 144 139 2 261
240 234 201 204 194 160 134 75 60 55 72 321 245 180 274 238 227 232 219 209 199 194 191 186 184 183 185 180 176 171 171 186 184 180 179 179 178 175 167 186 191 200 247 292
303 297 247 162 122 83 108 96 43 8 13 252 255 194 250 252 235 214 208 208 196 183 182 179 173 180 183 180 182 179 179 195 191 184 189 189 186 184 187 195 193 189 197 220
190 282 250 193 176 179 173 144 158 186 214 269 301 235 254 263 258 214 191 184 165 162 173 180 181 179 179 182 184 182 185 197 192 190 196 191 185 193 202 200 192 191 201 210
178 245 273 229 186 145 146 171 158 128 135 257 277 284 299 320 353 124 142 144 161 172 172 169 171 178 180 179 185 186 185 191 192 193 192 187 191 197 202 198 189 190 199 198
160 219 282 291 84 53 138 143 110 124 146 226 282 271 256 261 246 206 179 180 184 173 169 166 167 170 185 183 180 181 187 191 189 188 192 192 194 195 195 188 188 190 193 187
147 169 289 8 166 178 112 110 115 120 150 157 226 265 232 214 206 199 202 193 185 181 179 174 177 166 157 151 160 173 185 183 177 186 189 188 186 182 179 181 186 185 180 179
150 132 226 261 256 184 162 164 151 154 198 171 175 261 277 208 208 195 195 176 173 172 169 157 146 132 125 138 156 179 187 188 187 184 176 182 181 167 173 191 193 185 182 182
137 120 96 338 334 3 130 159 153 130 122 153 170 256 321 75 138 185 174 169 172 162 145 129 122 131 141 160 171 185 197 197 183 170 172 180 183 180 193 205 197 187 181 174
118 118 163 195 216 201 194 179 155 135 152 187 213 234 282 266 207 205 181 178 167 149 140 143 144 150 160 176 182 192 212 199 175 171 178 189 194 196 202 207 188 182 178 177
105 139 191 224 223 158 176 202 174 176 183 184 216 216 243 235 206 190 170 155 155 162 159 165 167 170 164 165 173 184 195 190 179 172 183 199 196 187 182 183 182 177 179 184
82 136 133 333 306 146 110 336 168 182 180 195 195 247 243 190 139 148 159 163 185 206 196 186 177 174 181 188 189 176 177 171 147 167 188 182 168 172 179 181 179 173 177 174
100 127 125 221 280 89 271 244 199 179 179 182 208 235 173 142 168 189 194 194 206 216 210 203 201 199 203 203 194 190 186 156 141 151 156 157 171 173 176 174 162 178 186 180
137 120 126 142 119 206 235 234 169 155 199 215 218 217 180 171 163 172 183 188 211 217 215 219 212 211 211 203 192 173 147 139 150 163 174 171 171 182 177 165 175 187 187 189
149 137 124 128 164 247 282 237 170 166 263 263 200 196 127 124 78 17 357 188 211 219 210 212 209 205 190 184 176 147 140 145 155 192 203 193 184 183 175 183 194 191 184 194
69 97 117 129 156 216 236 250 202 119 274 262 181 176 135 108 107 267 313 316 208 202 183 170 150 121 131 164 140 139 162 170 201 216 218 199 187 184 184 195 197 190 185 203
54 56 109 143 190 253 257 280 121 158 230 220 171 167 152 163 196 206 23 31 53 78 83 95 106 102 112 134 129 141 151 209 232 218 193 185 187 186 181 181 184 177 181 183
159 142 159 144 177 246 276 112 168 208 215 159 156 148 144 145 115 85 60 47 52 59 61 77 89 75 53 81 107 106 200 271 257 181 179 188 187 186 173 169 179 167 166 174
180 183 180 183 208 249 240 202 231 162 169 186 163 160 149 139 121 99 85 76 64 62 54 61 89 84 62 65 90 102 298 324 14 169 198 190 161 165 156 160 167 165 169 183
271 118 127 243 280 292 286 310 338 172 183 176 158 152 145 144 137 121 107 85 69 62 64 65 74 72 50 35 50 78 321 99 125 163 176 119 137 134 133 149 168 179 190 204
225 138 118 265 284 329 333 335 331 34 94 102 100 118 145 136 130 124 115 99 87 68 71 90 95 84 43 31 17 14 24 76 100 93 87 123 150 151 160 172 198 207 216 212
207 174 169 213 217 192 249 285 351 86 122 135 118 96 108 138 144 134 133 128 115 108 95 88 87 70 21 20 7 2 25 80 107 96 100 160 161 144 160 159 316 293 249 251